Regional Weather Roundup
Issued by NWS State College, PA

Home | Current Version | Previous Version | Text Only | Print | Product List | Glossary On
Versions: 1 2 3 4 5 6 7 8 9 10 11 12 13 14 15 16 17 18 19 20 21 22 23 24 25 26 27 28 29 30 31 32 33 34 35 36 37 38 39 40 41 42 43 44 45 46 47 48 49 50
000
ASUS41 KCTP 161803
RWRCTP

REGIONAL WEATHER ROUNDUP
NATIONAL WEATHER SERVICE STATE COLLEGE PA
100 PM EST TUE JAN 16 2018

Note: "fair" indicates few or no clouds below 12,000 feet with no
significant weather and/or obstructions to visibility.

* = STATION THAT DOES NOT REPORT PRECIPITATION /E.G. RAIN...SNOW...ETC/
    THUNDER OR FOG.

PAZ002>004-007>009-013>016-020>023-029>032-161900-
WESTERN PENNSYLVANIA

CITY           SKY/WX    TMP DP  RH WIND       PRES   REMARKS
ERIE           LGT SNOW  14  10  84 W10       30.37F VSB 3/4 WCI   1
MEADVILLE      CLOUDY    22  20  92 SW6       30.29F WCI  14
FRANKLIN*      LGT SNOW  26  22  84 SW8       30.28F FOG
NEW CASTLE     LGT SNOW  20  15  81 W7        30.35F WCI  11
BEAVER COUNTY  LGT SNOW  23  18  80 W6        30.33F
BUTLER*        LGT SNOW  27  23  85 SW9       30.31F FOG
PITTSBURGH INT LGT SNOW  25  21  85 W9        30.32F FOG
PITTSBURGH     LGT SNOW  27  21  78 SW7       30.30F VSB 1
INDIANA*       CLOUDY    28  27  93 W7        30.34F
LATROBE        LGT SNOW  28  27  93 SW5       30.33F
WASHINGTON CO* LGT SNOW  25  21  85 W8        30.36F FOG
$$

PAZ004>006-010>012-017>019-024>028-033>037-041-042-045-046-049>053-161900-
CENTRAL PENNSYLVANIA

CITY           SKY/WX    TMP DP  RH WIND       PRES   REMARKS
BRADFORD       LGT SNOW  24  20  84 S3        30.24F FOG
DUBOIS         LGT SNOW  26  21  81 SW9       30.26F VSB 3/4
CLEARFIELD     LGT SNOW  27  24  89 CALM      30.30F FOG
JOHNSTOWN      LGT SNOW  25  22  88 CALM      30.23F FOG
ALTOONA        LGT SNOW  26  22  84 CALM      30.31F FOG
STATE COLLEGE  LGT SNOW  25  21  86 CALM      30.33F
WILLIAMSPORT   LGT SNOW  28  25  88 NE3       30.38F VSB 1
SELINSGROVE    SNOW      29  27  92 CALM      30.40F VSB 1/2
FT INDIANTOWN  LGT SNOW  30  30 100 CALM      30.39F FOG
CAPITAL CITY   LGT SNOW  33  28  81 E6        30.40F
HARRISBURG     LGT SNOW  32  29  88 CALM      30.40F VSB 1
YORK           CLOUDY    31  27  85 CALM      30.39F
$$

PAZ038>040-043-044-047-048-054-055-060>062-067>071-161900-
EASTERN PENNSYLVANIA

CITY           SKY/WX    TMP DP  RH WIND       PRES   REMARKS
SCRANTON       LGT SNOW  29  26  89 CALM      30.36F VSB 3/4
MOUNT POCONO   LGT SNOW  27  24  89 S6        30.31F FOG
ALLENTOWN      CLOUDY    31  25  78 N3        30.42F HAZE
QUAKERTOWN*    CLOUDY    34  28  80 CALM      30.41F
READING        CLOUDY    32  29  88 CALM      30.41F
LANCASTER      CLOUDY    33  30  88 CALM      30.40F FOG
COATESVILLE    MOCLDY    37  32  81 SW5       30.40F
POTTSTOWN      NOT AVBL
BLUE BELL      CLOUDY    36  30  80 CALM      30.42F
DOYLESTOWN     CLOUDY    37  28  70 VRB3      30.40F
WILLOW GROVE   NOT AVBL
NORTH PHILA    FAIR      41  29  62 CALM      30.43F
PHILADELPHIA   PTSUNNY   41  28  60 W3        30.42F
$$



USA.gov is the U.S. government's official web portal to all federal, state and local government web resources and services.